IR2UDS Weather Reports


time (UTC)temp
F
wind
direction
speed
knots
gust
knots
rain 1hr
in
rain 24hr
in
rain mn
in
humidity
%
barometer
mb
20260506113317 47 182 13.9 23.5 0.03 0.33 0.30 83 1008.2
20260506112331 47 195 16.5 23.5 0.04 0.33 0.30 84 1008.2
20260506110319 47 186 12.2 21.7 0.02 0.35 0.28 85 1008.5
20260506104332 46 200 12.2 29.5 0.02 0.34 0.27 86 1008.6
20260506103326 47 223 12.2 23.5 0.03 0.34 0.27 88 1008.2
20260506102318 46 196 17.4 29.5 0.02 0.33 0.26 89 1008.2
20260506094326 45 214 11.3 17.4 0.03 0.32 0.25 90 1008.4
20260506091332 46 194 8.7 15.6 0.03 0.31 0.24 90 1008.5
20260506073321 44 190 10.4 21.7 0.03 0.43 0.19 90 1008.0
20260506072315 44 11 2.6 12.2 0.03 0.43 0.19 90 1007.9
20260506071328 44 37 0.9 3.5 0.03 0.42 0.18 90 1008.0
20260506062327 44 96 0.9 6.1 0.03 0.55 0.16 90 1008.4
20260506061321 44 57 2.6 5.2 0.03 0.54 0.15 90 1008.5
20260506060319 43 71 0.9 2.6 0.03 0.63 0.15 90 1008.6
20260506051315 43 16 4.3 7.8 0.03 0.60 0.12 89 1009.4
20260506050312 43 92 2.6 8.7 0.03 0.72 0.12 89 1009.3
20260506041313 41 67 2.6 4.3 0.04 0.69 0.09 89 1009.6
20260506034320 40 62 1.7 4.3 0.03 0.73 0.07 89 1009.5
20260506033314 40 157 0.0 4.3 0.04 0.73 0.07 88 1009.9
20260506030323 41 66 3.5 6.1 0.04 0.74 0.05 88 1010.3
20260506025313 41 81 0.9 3.5 0.03 0.73 0.04 89 1010.6
20260506023321 41 34 2.6 4.3 0.03 0.72 0.03 89 1010.5
20260506022317 41 16 3.5 3.5 0.03 0.72 0.03 89 1010.7
20260506012314 43 144 0.0 1.7 0.00 0.69 0.00 89 1011.0
20260506010327 43 174 4.3 6.1 0.00 0.69 0.00 89 1011.3
20260506004316 43 182 2.6 7.0 0.00 0.69 0.00 89 1011.2
20260506003327 43 188 6.1 9.6 0.00 0.69 0.00 89 1011.3
20260506002322 43 177 8.7 13.0 0.00 0.69 0.00 89 1011.3
20260506001321 43 210 10.4 13.9 0.00 0.69 0.00 90 1011.0
20260505235328 43 182 7.0 11.3 0.00 0.69 0.00 89 1011.7
20260505234322 42 207 7.0 9.6 0.00 0.69 0.00 89 1011.8
20260505232313 42 200 8.7 11.3 0.00 0.69 0.00 90 1011.8
20260505231327 42 196 7.0 10.4 0.00 0.69 0.00 90 1012.0
20260505225315 42 208 7.8 9.6 0.00 0.69 0.00 90 1011.9
20260505224331 42 186 8.7 13.0 0.00 0.69 0.00 90 1012.0
20260505223331 42 186 7.0 9.6 0.00 0.69 0.00 90 1012.2
20260505214322 42 199 6.1 7.8 0.00 0.69 0.69 90 1012.3
20260505213322 42 193 6.1 8.7 0.00 0.69 0.69 90 1012.3
20260505210320 42 188 5.2 9.6 0.00 0.69 0.69 90 1012.6
20260505205314 43 169 5.2 7.8 0.01 0.69 0.69 90 1012.6
20260505204328 43 173 4.3 7.0 0.01 0.69 0.69 90 1012.8
20260505201313 42 196 4.3 9.6 0.01 0.69 0.69 90 1012.9
20260505194313 43 181 9.6 12.2 0.00 0.68 0.68 90 1012.7
20260505193330 43 227 8.7 10.4 0.00 0.68 0.68 90 1012.6
20260505191318 43 222 10.4 13.0 0.00 0.68 0.68 90 1012.4
20260505185328 43 200 10.4 14.8 0.00 0.68 0.68 90 1012.4
20260505184321 43 202 7.0 10.4 0.00 0.68 0.68 90 1012.3
20260505183321 44 209 8.7 12.2 0.00 0.68 0.68 90 1012.3
20260505181331 44 195 6.1 11.3 0.00 0.68 0.68 90 1012.3
20260505180327 44 208 7.0 9.6 0.00 0.68 0.68 90 1012.2
20260505174319 44 194 7.8 13.9 0.00 0.68 0.68 90 1012.2
20260505173312 44 185 8.7 13.0 0.00 0.68 0.68 90 1012.2
20260505161326 46 177 7.8 10.4 0.00 0.68 0.68 90 1012.3
20260505152318 46 209 5.2 9.6 0.00 0.68 0.68 90 1012.3
20260505150327 46 198 6.1 9.6 0.01 0.68 0.68 90 1013.0
20260505140320 47 181 7.0 10.4 0.00 0.67 0.67 89 1013.0
20260505120324 47 200 3.5 5.2 0.02 0.67 0.67 89 1013.2
20260505114319 46 142 2.6 6.1 0.03 0.67 0.67 90 1013.2